DAL1440 KAUS-KMSY

Flight info

Callsign DAL1440
Flight time 1h 3m
Altitude 39000
Route ILEXY4 ZENZI IAH J2 LCH AWDAD1
Aircraft A319/M-SDE3FGHIRWY/LB1

Departure

Time 2026-05-07 21:52
Airport Austin Bergstrom International Airport (KAUS)

Arrival

Time 2026-05-07 22:56
Airport Louis Armstrong New Orleans International Airport (KMSY)
Time Latitude Longitude Altitude Speed Heading
2026-05-07 21:24 30.20180 -97.66216 528 ft 0 kts 325°
2026-05-07 21:32 30.20179 -97.66215 528 ft 0 kts 325°
2026-05-07 21:41 30.20168 -97.66206 528 ft 4 kts 325°
2026-05-07 21:41 30.20146 -97.66188 528 ft 4 kts 325°
2026-05-07 21:42 30.20124 -97.66170 528 ft 4 kts 325°
2026-05-07 21:42 30.20107 -97.66156 528 ft 4 kts 300°
2026-05-07 21:42 30.20104 -97.66140 528 ft 4 kts 204°
2026-05-07 21:42 30.20129 -97.66137 528 ft 3 kts 179°
2026-05-07 21:43 30.20132 -97.66137 528 ft 3 kts 179°
2026-05-07 21:45 30.20103 -97.66142 528 ft 7 kts 193°
2026-05-07 21:45 30.20053 -97.66172 528 ft 9 kts 220°
2026-05-07 21:45 30.20035 -97.66245 528 ft 12 kts 269°
2026-05-07 21:46 30.20033 -97.66349 528 ft 13 kts 268°
2026-05-07 21:46 30.19963 -97.66391 528 ft 13 kts 179°
2026-05-07 21:46 30.19868 -97.66385 528 ft 14 kts 164°
2026-05-07 21:46 30.19841 -97.66288 528 ft 14 kts 89°
2026-05-07 21:47 30.19843 -97.66171 528 ft 15 kts 89°
2026-05-07 21:47 30.19845 -97.66045 527 ft 16 kts 89°
2026-05-07 21:47 30.19795 -97.65984 527 ft 12 kts 181°
2026-05-07 21:47 30.19694 -97.65984 527 ft 18 kts 179°
2026-05-07 21:48 30.19564 -97.65981 527 ft 19 kts 179°
2026-05-07 21:48 30.19427 -97.65977 528 ft 20 kts 178°
2026-05-07 21:48 30.19290 -97.65973 528 ft 20 kts 178°
2026-05-07 21:48 30.19149 -97.65969 528 ft 21 kts 178°
2026-05-07 21:49 30.19005 -97.65965 528 ft 21 kts 178°
2026-05-07 21:49 30.18858 -97.65961 528 ft 21 kts 179°
2026-05-07 21:49 30.18707 -97.65958 527 ft 22 kts 179°
2026-05-07 21:49 30.18552 -97.65954 527 ft 22 kts 179°
2026-05-07 21:50 30.18394 -97.65950 527 ft 23 kts 178°
2026-05-07 21:50 30.18234 -97.65945 527 ft 23 kts 178°
2026-05-07 21:50 30.18076 -97.65941 528 ft 19 kts 178°
2026-05-07 21:50 30.17961 -97.65937 528 ft 13 kts 175°
2026-05-07 21:51 30.17918 -97.65858 528 ft 13 kts 90°
2026-05-07 21:51 30.17918 -97.65750 528 ft 10 kts 88°
2026-05-07 21:51 30.17967 -97.65727 527 ft 10 kts 357°
2026-05-07 21:51 30.18135 -97.65732 525 ft 57 kts 359°
2026-05-07 21:52 30.18794 -97.65747 529 ft 129 kts 359°
2026-05-07 21:52 30.19761 -97.65773 1065 ft 138 kts 360°
2026-05-07 21:52 30.20716 -97.65763 1772 ft 141 kts 15°
2026-05-07 21:52 30.21421 -97.64980 2173 ft 159 kts 64°
2026-05-07 21:53 30.21877 -97.63679 2508 ft 191 kts 67°
2026-05-07 21:53 30.22432 -97.62141 2907 ft 222 kts 67°
2026-05-07 21:53 30.23050 -97.60405 3466 ft 243 kts 68°
2026-05-07 21:53 30.23707 -97.58555 3996 ft 253 kts 68°
2026-05-07 21:54 30.24393 -97.56637 4557 ft 265 kts 67°
2026-05-07 21:54 30.25094 -97.54653 5546 ft 270 kts 69°
2026-05-07 21:54 30.25750 -97.52589 6484 ft 276 kts 72°
2026-05-07 21:54 30.26382 -97.50460 7290 ft 286 kts 72°
2026-05-07 21:55 30.27051 -97.48244 8012 ft 298 kts 71°
2026-05-07 21:55 30.27771 -97.45947 8789 ft 308 kts 70°
2026-05-07 21:55 30.28531 -97.43587 9592 ft 317 kts 70°
2026-05-07 21:55 30.29320 -97.41175 10320 ft 328 kts 69°
2026-05-07 21:56 30.30154 -97.38631 10768 ft 347 kts 70°
2026-05-07 21:56 30.31023 -97.35954 11317 ft 362 kts 70°
2026-05-07 21:56 30.31905 -97.33192 12079 ft 368 kts 70°
2026-05-07 21:56 30.32793 -97.30389 12857 ft 375 kts 70°
2026-05-07 21:57 30.33695 -97.27538 13615 ft 381 kts 71°
2026-05-07 21:57 30.34618 -97.24634 14335 ft 387 kts 70°
2026-05-07 21:57 30.35497 -97.21673 15050 ft 391 kts 76°
2026-05-07 21:57 30.35872 -97.18595 15742 ft 393 kts 91°
2026-05-07 21:58 30.35734 -97.15425 16476 ft 394 kts 96°
2026-05-07 21:58 30.35536 -97.12246 17216 ft 398 kts 96°
2026-05-07 21:58 30.35339 -97.09029 17947 ft 402 kts 96°
2026-05-07 21:58 30.35144 -97.05780 18617 ft 406 kts 96°
2026-05-07 21:59 30.34950 -97.02494 19202 ft 411 kts 96°
2026-05-07 21:59 30.34757 -96.99174 19766 ft 416 kts 96°
2026-05-07 21:59 30.34560 -96.95806 20338 ft 422 kts 96°
2026-05-07 21:59 30.34362 -96.92395 20911 ft 427 kts 97°
2026-05-07 22:00 30.34159 -96.88951 21473 ft 432 kts 97°
2026-05-07 22:00 30.33950 -96.85460 22039 ft 437 kts 97°
2026-05-07 22:00 30.33734 -96.81929 22584 ft 442 kts 98°
2026-05-07 22:00 30.33517 -96.78367 23115 ft 447 kts 98°
2026-05-07 22:01 30.33297 -96.74760 23662 ft 451 kts 98°
2026-05-07 22:01 30.33075 -96.71162 24128 ft 455 kts 98°
2026-05-07 22:01 30.32847 -96.67497 24598 ft 459 kts 98°
2026-05-07 22:01 30.32618 -96.63801 25062 ft 463 kts 98°
2026-05-07 22:02 30.32382 -96.60060 25510 ft 467 kts 98°
2026-05-07 22:02 30.32144 -96.56304 25944 ft 470 kts 98°
2026-05-07 22:02 30.31901 -96.52511 26322 ft 474 kts 98°
2026-05-07 22:02 30.31656 -96.48698 26752 ft 478 kts 98°
2026-05-07 22:03 30.31409 -96.44847 27172 ft 481 kts 98°
2026-05-07 22:03 30.31159 -96.40963 27594 ft 485 kts 98°
2026-05-07 22:03 30.30907 -96.37059 28000 ft 489 kts 98°
2026-05-07 22:03 30.30652 -96.33119 28418 ft 492 kts 98°
2026-05-07 22:04 30.30393 -96.29161 28835 ft 496 kts 98°
2026-05-07 22:04 30.30133 -96.25167 29242 ft 499 kts 98°
2026-05-07 22:04 30.29872 -96.21145 29626 ft 502 kts 98°
2026-05-07 22:04 30.29609 -96.17107 30015 ft 506 kts 98°
2026-05-07 22:05 30.29342 -96.13034 30337 ft 509 kts 98°
2026-05-07 22:05 30.28944 -96.08974 30670 ft 508 kts 105°
2026-05-07 22:05 30.28070 -96.05032 31009 ft 504 kts 115°
2026-05-07 22:05 30.26736 -96.01304 31342 ft 499 kts 124°
2026-05-07 22:06 30.25105 -95.97765 31662 ft 499 kts 126°
2026-05-07 22:06 30.23461 -95.94219 32005 ft 502 kts 126°
2026-05-07 22:06 30.21812 -95.90654 32381 ft 504 kts 126°
2026-05-07 22:06 30.20159 -95.87071 32784 ft 504 kts 126°
2026-05-07 22:07 30.18512 -95.83497 33253 ft 503 kts 126°
2026-05-07 22:07 30.16874 -95.79938 33720 ft 502 kts 126°
2026-05-07 22:07 30.15232 -95.76375 34214 ft 501 kts 127°
2026-05-07 22:07 30.13585 -95.72822 34611 ft 501 kts 127°
2026-05-07 22:08 30.11930 -95.69270 34956 ft 502 kts 127°
2026-05-07 22:08 30.10268 -95.65723 35257 ft 503 kts 127°
2026-05-07 22:08 30.08605 -95.62175 35614 ft 503 kts 127°
2026-05-07 22:08 30.06940 -95.58614 35956 ft 504 kts 127°
2026-05-07 22:09 30.05276 -95.55054 36334 ft 503 kts 127°
2026-05-07 22:09 30.03617 -95.51502 36689 ft 504 kts 127°
2026-05-07 22:09 30.01973 -95.47980 37021 ft 504 kts 127°
2026-05-07 22:09 30.00312 -95.44429 37311 ft 504 kts 127°
2026-05-07 22:10 29.98650 -95.40868 37562 ft 506 kts 125°
2026-05-07 22:10 29.97278 -95.37085 37824 ft 517 kts 114°
2026-05-07 22:10 29.96476 -95.32987 38085 ft 527 kts 101°
2026-05-07 22:10 29.96299 -95.28744 38351 ft 532 kts 90°
2026-05-07 22:11 29.96638 -95.24492 38605 ft 535 kts 85°
2026-05-07 22:11 29.97054 -95.20226 38840 ft 535 kts 85°
2026-05-07 22:11 29.97440 -95.15946 38983 ft 535 kts 86°
2026-05-07 22:11 29.97805 -95.11690 39022 ft 532 kts 86°
2026-05-07 22:12 29.98512 -95.03264 39022 ft 530 kts 86°
2026-05-07 22:12 29.99243 -94.94801 39014 ft 530 kts 86°
2026-05-07 22:13 29.99991 -94.86355 39021 ft 529 kts 86°
2026-05-07 22:13 30.00736 -94.77915 39021 ft 529 kts 86°
2026-05-07 22:14 30.01468 -94.69467 39024 ft 529 kts 86°
2026-05-07 22:14 30.02189 -94.61011 39020 ft 529 kts 86°
2026-05-07 22:15 30.02899 -94.52556 39025 ft 529 kts 86°
2026-05-07 22:15 30.03608 -94.44154 39030 ft 529 kts 86°
2026-05-07 22:16 30.04318 -94.35701 39048 ft 530 kts 86°
2026-05-07 22:16 30.05026 -94.27238 39043 ft 530 kts 86°
2026-05-07 22:17 30.05721 -94.18770 39037 ft 530 kts 86°
2026-05-07 22:17 30.06409 -94.10301 39036 ft 530 kts 86°
2026-05-07 22:18 30.07434 -93.97589 39019 ft 530 kts 86°
2026-05-07 22:19 30.08005 -93.90536 39048 ft 530 kts 86°
2026-05-07 22:19 30.08675 -93.82064 39047 ft 530 kts 86°
2026-05-07 22:20 30.09344 -93.73588 39042 ft 530 kts 86°
2026-05-07 22:20 30.10015 -93.65108 39045 ft 530 kts 86°
2026-05-07 22:21 30.10672 -93.56630 39047 ft 529 kts 86°
2026-05-07 22:21 30.11322 -93.48164 39047 ft 529 kts 86°
2026-05-07 22:22 30.11971 -93.39703 39034 ft 529 kts 86°
2026-05-07 22:22 30.12614 -93.31243 39044 ft 529 kts 87°
2026-05-07 22:23 30.13249 -93.22771 39048 ft 529 kts 87°
2026-05-07 22:23 30.13875 -93.14308 39047 ft 529 kts 87°
2026-05-07 22:24 30.14457 -93.05902 39046 ft 528 kts 88°
2026-05-07 22:24 30.14690 -93.01651 38470 ft 536 kts 89°
2026-05-07 22:24 30.14891 -92.97330 37964 ft 540 kts 89°
2026-05-07 22:24 30.15077 -92.92981 37702 ft 542 kts 89°
2026-05-07 22:25 30.15266 -92.88629 37441 ft 541 kts 89°
2026-05-07 22:25 30.15465 -92.84291 37186 ft 539 kts 89°
2026-05-07 22:25 30.15673 -92.79980 36935 ft 537 kts 89°
2026-05-07 22:25 30.15887 -92.75680 36683 ft 534 kts 89°
2026-05-07 22:26 30.16101 -92.71404 36315 ft 531 kts 89°
2026-05-07 22:26 30.16311 -92.67151 35652 ft 531 kts 89°
2026-05-07 22:26 30.16515 -92.62897 35036 ft 529 kts 89°
2026-05-07 22:26 30.16716 -92.58661 34391 ft 528 kts 89°
2026-05-07 22:27 30.16914 -92.54420 33711 ft 528 kts 90°
2026-05-07 22:27 30.17110 -92.50195 33077 ft 524 kts 89°
2026-05-07 22:27 30.17304 -92.46005 32455 ft 521 kts 89°
2026-05-07 22:27 30.17498 -92.41834 31824 ft 519 kts 89°
2026-05-07 22:28 30.17689 -92.37683 31304 ft 514 kts 89°
2026-05-07 22:28 30.17878 -92.33572 30657 ft 512 kts 89°
2026-05-07 22:28 30.18062 -92.29489 30275 ft 505 kts 89°
2026-05-07 22:28 30.18241 -92.25458 29557 ft 501 kts 89°
2026-05-07 22:29 30.18418 -92.21448 28895 ft 495 kts 89°
2026-05-07 22:29 30.18594 -92.17507 28351 ft 486 kts 89°
2026-05-07 22:29 30.18767 -92.13650 27833 ft 477 kts 89°
2026-05-07 22:29 30.18935 -92.09846 27295 ft 470 kts 89°
2026-05-07 22:30 30.19076 -92.06626 26849 ft 465 kts 89°
2026-05-07 22:30 30.19238 -92.02912 26301 ft 461 kts 89°
2026-05-07 22:30 30.19354 -91.99255 25770 ft 460 kts 94°
2026-05-07 22:30 30.19130 -91.95581 25301 ft 457 kts 98°
2026-05-07 22:31 30.18863 -91.91934 24818 ft 455 kts 98°
2026-05-07 22:31 30.18604 -91.88330 24663 ft 443 kts 98°
2026-05-07 22:31 30.18357 -91.84816 24456 ft 436 kts 98°
2026-05-07 22:31 30.18113 -91.81345 24096 ft 431 kts 98°
2026-05-07 22:32 30.17869 -91.77906 23742 ft 427 kts 98°
2026-05-07 22:32 30.17624 -91.74500 23352 ft 424 kts 98°
2026-05-07 22:32 30.17378 -91.71119 22940 ft 420 kts 98°
2026-05-07 22:32 30.17135 -91.67770 22522 ft 417 kts 98°
2026-05-07 22:33 30.16893 -91.64432 22116 ft 414 kts 98°
2026-05-07 22:33 30.16655 -91.61167 21721 ft 412 kts 98°
2026-05-07 22:33 30.16413 -91.57881 21326 ft 409 kts 98°
2026-05-07 22:33 30.16172 -91.54618 20935 ft 406 kts 98°
2026-05-07 22:34 30.15933 -91.51377 20542 ft 403 kts 98°
2026-05-07 22:34 30.15693 -91.48161 20161 ft 400 kts 98°
2026-05-07 22:34 30.15455 -91.44975 19786 ft 397 kts 98°
2026-05-07 22:34 30.15219 -91.41796 19414 ft 395 kts 98°
2026-05-07 22:35 30.14983 -91.38641 18996 ft 393 kts 99°
2026-05-07 22:35 30.14747 -91.35494 18572 ft 393 kts 99°
2026-05-07 22:35 30.14510 -91.32348 18125 ft 392 kts 99°
2026-05-07 22:35 30.14273 -91.29208 17635 ft 392 kts 98°
2026-05-07 22:36 30.14037 -91.26082 17152 ft 391 kts 98°
2026-05-07 22:36 30.13800 -91.22954 16674 ft 390 kts 98°
2026-05-07 22:36 30.13566 -91.19875 16212 ft 388 kts 98°
2026-05-07 22:36 30.13332 -91.16807 15739 ft 378 kts 98°
2026-05-07 22:37 30.13103 -91.13833 15292 ft 367 kts 98°
2026-05-07 22:37 30.12878 -91.10928 14785 ft 360 kts 97°
2026-05-07 22:37 30.12657 -91.08073 14277 ft 353 kts 97°
2026-05-07 22:37 30.12440 -91.05273 13772 ft 347 kts 97°
2026-05-07 22:38 30.12226 -91.02515 13210 ft 342 kts 97°
2026-05-07 22:38 30.12013 -90.99800 12656 ft 336 kts 97°
2026-05-07 22:38 30.11800 -90.97118 12122 ft 337 kts 96°
2026-05-07 22:38 30.11583 -90.94401 11584 ft 341 kts 96°
2026-05-07 22:39 30.11365 -90.91667 11126 ft 341 kts 96°
2026-05-07 22:39 30.11155 -90.88984 10992 ft 330 kts 96°
2026-05-07 22:39 30.10952 -90.86378 10996 ft 324 kts 96°
2026-05-07 22:39 30.10749 -90.83799 11006 ft 322 kts 96°
2026-05-07 22:40 30.10543 -90.81224 11016 ft 322 kts 96°
2026-05-07 22:40 30.10339 -90.78655 11016 ft 322 kts 96°
2026-05-07 22:40 30.10135 -90.76082 11017 ft 322 kts 96°
2026-05-07 22:40 30.09928 -90.73506 11006 ft 322 kts 96°
2026-05-07 22:41 30.09707 -90.70936 11017 ft 322 kts 100°
2026-05-07 22:41 30.09118 -90.68457 11022 ft 319 kts 114°
2026-05-07 22:41 30.08282 -90.66085 11011 ft 319 kts 114°
2026-05-07 22:41 30.07446 -90.63711 11009 ft 319 kts 114°
2026-05-07 22:42 30.06621 -90.61364 10896 ft 320 kts 114°
2026-05-07 22:42 30.05782 -90.58965 10657 ft 318 kts 114°
2026-05-07 22:42 30.04968 -90.56635 10430 ft 316 kts 114°
2026-05-07 22:42 30.04149 -90.54291 10198 ft 315 kts 114°
2026-05-07 22:43 30.03327 -90.51947 9968 ft 314 kts 114°
2026-05-07 22:43 30.02506 -90.49615 9721 ft 313 kts 114°
2026-05-07 22:43 30.01687 -90.47298 9466 ft 311 kts 114°
2026-05-07 22:43 30.00870 -90.44992 9213 ft 310 kts 114°
2026-05-07 22:44 30.00055 -90.42695 8955 ft 308 kts 114°
2026-05-07 22:44 29.99248 -90.40409 8709 ft 307 kts 113°
2026-05-07 22:44 29.98448 -90.38136 8462 ft 305 kts 113°
2026-05-07 22:44 29.97652 -90.35876 8224 ft 305 kts 113°
2026-05-07 22:45 29.96861 -90.33634 7976 ft 298 kts 113°
2026-05-07 22:45 29.96090 -90.31448 7735 ft 290 kts 113°
2026-05-07 22:45 29.95343 -90.29337 7498 ft 283 kts 113°
2026-05-07 22:45 29.94608 -90.27258 7257 ft 278 kts 113°
2026-05-07 22:46 29.93881 -90.25202 7026 ft 276 kts 114°
2026-05-07 22:46 29.93159 -90.23159 6790 ft 274 kts 114°
2026-05-07 22:46 29.92447 -90.21152 6556 ft 273 kts 114°
2026-05-07 22:46 29.91727 -90.19128 6331 ft 272 kts 113°
2026-05-07 22:47 29.91011 -90.17115 6082 ft 271 kts 113°
2026-05-07 22:47 29.90300 -90.15107 5822 ft 270 kts 113°
2026-05-07 22:47 29.89590 -90.13105 5560 ft 269 kts 112°
2026-05-07 22:47 29.88887 -90.11116 5343 ft 268 kts 113°
2026-05-07 22:48 29.88188 -90.09143 5140 ft 267 kts 112°
2026-05-07 22:48 29.87484 -90.07173 4944 ft 266 kts 113°
2026-05-07 22:48 29.86777 -90.05203 4745 ft 265 kts 113°
2026-05-07 22:48 29.86072 -90.03240 4528 ft 263 kts 113°
2026-05-07 22:49 29.85389 -90.01328 4339 ft 254 kts 112°
2026-05-07 22:49 29.84877 -89.99423 4129 ft 249 kts 91°
2026-05-07 22:49 29.85317 -89.97556 3934 ft 242 kts 51°
2026-05-07 22:49 29.86633 -89.96473 3737 ft 233 kts 12°
2026-05-07 22:50 29.88187 -89.96639 3538 ft 227 kts 331°
2026-05-07 22:50 29.89280 -89.97905 3382 ft 227 kts 303°
2026-05-07 22:50 29.90173 -89.99416 3240 ft 229 kts 306°
2026-05-07 22:50 29.91127 -90.00899 3099 ft 230 kts 308°
2026-05-07 22:51 29.92088 -90.02339 2948 ft 221 kts 309°
2026-05-07 22:51 29.93015 -90.03706 2816 ft 211 kts 310°
2026-05-07 22:51 29.94067 -90.04808 2704 ft 200 kts 324°
2026-05-07 22:51 29.94897 -90.06034 2579 ft 197 kts 287°
2026-05-07 22:52 29.94854 -90.07600 2460 ft 196 kts 263°
2026-05-07 22:52 29.94955 -90.09099 2324 ft 190 kts 295°
2026-05-07 22:52 29.95450 -90.10505 2210 ft 190 kts 287°
2026-05-07 22:52 29.95767 -90.11965 2129 ft 183 kts 287°
2026-05-07 22:53 29.96083 -90.13337 2057 ft 173 kts 289°
2026-05-07 22:53 29.96403 -90.14675 1824 ft 172 kts 289°
2026-05-07 22:53 29.96719 -90.15989 1603 ft 167 kts 289°
2026-05-07 22:53 29.97021 -90.17241 1394 ft 157 kts 288°
2026-05-07 22:54 29.97307 -90.18427 1185 ft 150 kts 289°
2026-05-07 22:54 29.97582 -90.19567 984 ft 146 kts 288°
2026-05-07 22:54 29.97848 -90.20691 788 ft 145 kts 289°
2026-05-07 22:54 29.98128 -90.21819 628 ft 146 kts 288°
2026-05-07 22:55 29.98404 -90.22948 424 ft 148 kts 287°
2026-05-07 22:55 29.98682 -90.24107 243 ft 151 kts 287°
2026-05-07 22:55 29.98964 -90.25278 37 ft 150 kts 287°
2026-05-07 22:55 29.99220 -90.26334 8 ft 119 kts 285°
2026-05-07 22:56 29.99397 -90.27065 8 ft 70 kts 285°
2026-05-07 22:56 29.99495 -90.27480 3 ft 41 kts 285°
2026-05-07 22:56 29.99558 -90.27694 0 ft 16 kts 314°
2026-05-07 22:56 29.99667 -90.27683 2 ft 17 kts 18°
2026-05-07 22:57 29.99747 -90.27606 5 ft 16 kts 82°
2026-05-07 22:57 29.99718 -90.27460 5 ft 21 kts 105°
2026-05-07 22:57 29.99680 -90.27299 5 ft 21 kts 105°
2026-05-07 22:57 29.99640 -90.27134 7 ft 21 kts 105°
2026-05-07 22:58 29.99602 -90.26972 11 ft 20 kts 104°
2026-05-07 22:58 29.99563 -90.26811 13 ft 22 kts 105°
2026-05-07 22:58 29.99520 -90.26637 12 ft 23 kts 105°
2026-05-07 22:58 29.99475 -90.26454 9 ft 25 kts 105°
2026-05-07 22:59 29.99427 -90.26254 8 ft 27 kts 105°
2026-05-07 22:59 29.99379 -90.26048 4 ft 24 kts 105°
2026-05-07 22:59 29.99345 -90.25905 4 ft 14 kts 106°
2026-05-07 22:59 29.99278 -90.25856 4 ft 13 kts 165°
2026-05-07 23:00 29.99221 -90.25759 4 ft 17 kts 105°
2026-05-07 23:00 29.99200 -90.25623 5 ft 17 kts 91°
2026-05-07 23:00 29.99204 -90.25486 9 ft 17 kts 94°
2026-05-07 23:00 29.99206 -90.25352 9 ft 16 kts 75°
2026-05-07 23:01 29.99261 -90.25252 9 ft 13 kts 39°
2026-05-07 23:01 29.99329 -90.25223 10 ft 8 kts
2026-05-07 23:01 29.99391 -90.25229 9 ft 10 kts 354°
2026-05-07 23:01 29.99443 -90.25239 11 ft 7 kts 349°
2026-05-07 23:02 29.99471 -90.25272 8 ft 8 kts 267°
2026-05-07 23:02 29.99465 -90.25318 7 ft 2 kts 261°
2026-05-07 23:02 29.99465 -90.25320 7 ft 0 kts 261°